Weather in Yershovo

Russia / Pskov Oblast     57°56′36″N   28°13′41″E
temp.,
°C
wind,
m/s
gust,
m/s
humid.,
%
clouds,
%
prec.,
mm/h
press.,
hPa
HPBL,
m
13 june, sun
sun1300:00+14s3793100 0.4 1001151
03:00+14s269787 0.4 1001147
06:00+14wsw4694100 0.1 1001443
09:00+13wsw359296 0.4 1002423
12:00+15w2580100 0.0 1004529
15:00+15wnw6883100 0.2 1005661
18:00+14nw71185100 0.1 10081081
21:00+13nnw61282100 0.3 1010986
14 june, mon
mon1400:00+12nnw4117849 0.0 1011563
03:00+11nw498487 0.0 1013335
06:00+12nnw49801 0.0 1015389
09:00+16nnw46585 0.0 1016711
12:00+18nw5545100 0.0 10171352
15:00+19wnw444284 0.0 10171122
18:00+19wnw234176 0.0 1017731
21:00+15s116191 0.0 101611
15 june, tue
tue1500:00+12s357066 0.0 101568
03:00+11ssw377942 0.0 1014137
06:00+12ssw41179100 0.0 1013323
09:00+16sw4771100 0.0 1012598
12:00+16w5887100 0.4 1012769
15:00+15wsw4892100 1.6 1012619
18:00+20wsw475638 0.1 10111345
21:00+16wnw410580 0.1 1012400
16 june, wed
wed1600:00+13wnw410801 0.0 1014375
03:00+11nw37895 0.0 1016191
06:00+12nw358525 0.0 1017240
09:00+15nw346697 0.0 1019564
12:00+18wnw4551100 0.0 10201111
15:00+20nw354244 0.0 10211465
18:00+20wnw244333 0.0 10211267
21:00+17ssw016566 0.0 102111
17 june, thu
thu1700:00+13sse227666 0.0 102326
03:00+12s1183100 0.0 102426
06:00+13s238018 0.0 102590
09:00+18sw1257100 0.0 1026364
12:00+21w23385 0.0 1026933
15:00+24wnw13389 0.0 10251434
18:00+24wnw12430 0.0 10251350
21:00+19sse22682 0.0 102519